Peosta, IA

9:43 AM CST on January 22, 2017 (GMT -0600)
Dubuque Regional

Weather History for KDBQ - September, 2012

Change the Weather History Date:

Sunday, September 16, 2012

  Actual Average Record
Temperature  
Mean Temperature 59 °F 62 °F  
Max Temperature 73 °F 72 °F 96 °F (1931)
Min Temperature 45 °F 52 °F 34 °F (1984)
Degree Days  
Heating Degree Days 6 5  
Month to date heating degree days 43 49  
Since 1 July heating degree days 59 76  
Cooling Degree Days 0 2  
Month to date cooling degree days 57 45  
Year to date cooling degree days 902 621  
Growing Degree Days 10 (Base 50)    
Moisture  
Dew Point 47 °F    
Average Humidity 64    
Maximum Humidity 93    
Minimum Humidity 35    
Precipitation  
Precipitation 0.00 in 0.12 in 1.90 in (1987)
Month to date precipitation 0.95 1.88  
Year to date precipitation 17.70 27.86  
Snow  
Snow 0.00 in 0.00 in - ()
Month to date snowfall 0.0 0.0  
Since 1 July snowfall 0.0 0.0  
Since 1 September snowfall 0.0 0.0  
Snow Depth 0.00 in    
Sea Level Pressure  
Sea Level Pressure 30.05 in    
Wind  
Wind Speed 7 mph (SSW)    
Max Wind Speed 17 mph    
Max Gust Speed 21 mph    
Visibility 10 miles    
Events      
T = Trace of Precipitation, MM = Missing Value Source: NWS Daily Summary

Daily Weather History Graph

Daily Weather History Graph

Search for Another Location

Airport or City:

Trip Planner

Search our weather history database for the weather conditions in past years. The results will help you decide how hot, cold, wet, or windy it might be!

Date:

Astronomy

Sep. 16, 2012 Rise Set
Actual Time 6:44 AM CDT 7:09 PM CDT
Civil Twilight 6:16 AM CDT 7:37 PM CDT
Nautical Twilight 5:42 AM CDT 8:11 PM CDT
Astronomical Twilight 5:08 AM CDT 8:45 PM CDT
Moon 7:25 AM CDT (9/16) 7:12 PM CDT (9/16)
Length of Visible Light 13h 21m
Length of Day
12h 25m
New Moon, 0% of the Moon is Illuminated
Sep 16
New Moon
Sep 22
First Quarter
Sep 29
Full
Oct 8
Last Quarter
Oct 15
New

Hourly Weather History & Observations

Time (CDT) Temp. Windchill Dew Point Humidity Pressure Visibility Wind Dir Wind Speed Gust Speed Precip Events Conditions
12:53 AM 53.1 °F - 45.0 °F 74% 30.13 in 10.0 mi SSW 5.8 mph - N/A   Clear
1:53 AM 51.1 °F - 45.0 °F 80% 30.12 in 10.0 mi SSW 4.6 mph - N/A   Clear
2:53 AM 50.0 °F - 45.0 °F 83% 30.11 in 10.0 mi SSW 5.8 mph - N/A   Clear
3:53 AM 48.9 °F - 45.0 °F 86% 30.11 in 10.0 mi SSW 4.6 mph - N/A   Clear
4:53 AM 48.0 °F - 44.1 °F 86% 30.10 in 10.0 mi SSW 4.6 mph - N/A   Clear
5:53 AM 48.0 °F - 45.0 °F 89% 30.10 in 10.0 mi SSW 3.5 mph - N/A   Clear
6:53 AM 46.4 °F 45.2 °F 44.6 °F 93% 30.10 in 10.0 mi SW 3.5 mph - N/A   Clear
7:53 AM 48.0 °F - 46.0 °F 93% 30.11 in 10.0 mi SSW 4.6 mph - N/A   Clear
8:53 AM 55.0 °F - 50.0 °F 83% 30.11 in 10.0 mi SSW 6.9 mph - N/A   Clear
9:53 AM 59.0 °F - 48.9 °F 69% 30.11 in 10.0 mi SW 8.1 mph - N/A   Clear
10:22 AM 62.6 °F - 50.0 °F 63% 30.10 in 10.0 mi SW 8.1 mph 27.6 mph N/A   Clear
10:53 AM 64.0 °F - 50.0 °F 60% 30.10 in 10.0 mi SSW 9.2 mph - N/A   Clear
11:53 AM 68.0 °F - 46.0 °F 45% 30.08 in 10.0 mi SSW 13.8 mph - N/A   Clear
12:53 PM 70.0 °F - 44.1 °F 39% 30.06 in 10.0 mi SSW 11.5 mph - N/A   Clear
1:53 PM 71.1 °F - 43.0 °F 36% 30.04 in 10.0 mi SSW 15.0 mph - N/A   Clear
2:53 PM 73.4 °F - 46.4 °F 38% 30.01 in 10.0 mi South 13.8 mph - N/A   Clear
3:53 PM 73.0 °F - 46.0 °F 38% 29.99 in 10.0 mi SW 12.7 mph - N/A   Clear
4:53 PM 72.0 °F - 48.0 °F 43% 29.97 in 10.0 mi SSW 10.4 mph - N/A   Clear
5:53 PM 70.0 °F - 48.9 °F 47% 29.97 in 10.0 mi SSW 9.2 mph - N/A   Clear
6:53 PM 64.0 °F - 50.0 °F 60% 29.97 in 10.0 mi SSW 4.6 mph - N/A   Clear
7:53 PM 61.0 °F - 50.0 °F 67% 29.98 in 10.0 mi Calm Calm - N/A   Clear
8:53 PM 57.9 °F - 48.9 °F 72% 29.98 in 10.0 mi South 4.6 mph - N/A   Clear
9:53 PM 57.9 °F - 48.9 °F 72% 29.98 in 10.0 mi Calm Calm - N/A   Clear
10:53 PM 57.0 °F - 50.0 °F 77% 29.98 in 10.0 mi South 3.5 mph - N/A   Clear
11:53 PM 55.0 °F - 48.9 °F 80% 29.97 in 10.0 mi South 3.5 mph - N/A   Clear